Total_Precipitation_Accumulation
0.30 0.37 0.35 0.25 0.17 0.16 0.21 0.26 0.30 0.25 0.21 0.28 0.41 0.47 0.39 0.40 0.43 0.43 0.52 0.51 0.45 0.39 0.34 0.34 0.36 0.37 0.42 0.50 0.56 0.58 0.60 0.65 0.76 0.91 1.07 1.27 1.44 1.60
0.37 0.39 0.40 0.37 0.34 0.27 0.24 0.27 0.31 0.32 0.29 0.26 0.41 0.49 0.53 0.43 0.47 0.49 0.51 0.49 0.42 0.38 0.32 0.28 0.30 0.32 0.33 0.35 0.40 0.46 0.47 0.46 0.49 0.56 0.63 0.71 0.79 0.93
0.63 0.55 0.49 0.50 0.48 0.41 0.38 0.35 0.34 0.37 0.41 0.41 0.50 0.62 0.66 0.57 0.58 0.54 0.50 0.51 0.42 0.40 0.35 0.33 0.30 0.29 0.31 0.32 0.32 0.33 0.37 0.38 0.38 0.38 0.41 0.46 0.48 0.51
0.80 0.82 0.72 0.64 0.59 0.51 0.46 0.43 0.41 0.46 0.50 0.57 0.62 0.70 0.74 0.73 0.69 0.55 0.44 0.42 0.45 0.45 0.40 0.37 0.36 0.33 0.30 0.29 0.28 0.27 0.28 0.30 0.32 0.31 0.31 0.33 0.38 0.41
0.60 0.80 0.88 0.84 0.69 0.63 0.57 0.51 0.48 0.47 0.51 0.54 0.62 0.80 0.91 0.92 0.74 0.49 0.40 0.44 0.42 0.51 0.50 0.40 0.35 0.34 0.31 0.28 0.25 0.23 0.23 0.25 0.27 0.29 0.28 0.27 0.28 0.29
0.47 0.55 0.69 0.84 0.81 0.75 0.67 0.62 0.60 0.62 0.63 0.63 0.69 0.85 1.05 1.10 0.89 0.60 0.49 0.46 0.43 0.38 0.41 0.38 0.34 0.32 0.30 0.28 0.25 0.23 0.23 0.24 0.26 0.26 0.27 0.27 0.25 0.23
0.48 0.45 0.46 0.59 0.71 0.77 0.70 0.66 0.68 0.69 0.70 0.69 0.74 0.89 1.05 1.14 0.92 0.68 0.54 0.48 0.44 0.40 0.35 0.30 0.28 0.28 0.30 0.32 0.31 0.27 0.24 0.24 0.26 0.28 0.28 0.27 0.26 0.24
0.60 0.56 0.50 0.47 0.52 0.61 0.68 0.70 0.70 0.69 0.70 0.71 0.73 0.86 0.98 1.03 1.06 0.88 0.67 0.49 0.40 0.38 0.40 0.36 0.33 0.33 0.28 0.26 0.32 0.31 0.29 0.26 0.25 0.26 0.27 0.29 0.28 0.26
0.69 0.68 0.52 0.41 0.46 0.52 0.61 0.63 0.61 0.57 0.57 0.62 0.67 0.77 1.03 1.20 1.31 1.04 0.84 0.72 0.56 0.49 0.47 0.40 0.40 0.36 0.31 0.29 0.36 0.32 0.29 0.28 0.25 0.23 0.24 0.25 0.27 0.28
0.62 0.69 0.64 0.55 0.51 0.54 0.53 0.50 0.48 0.47 0.43 0.44 0.50 0.67 0.92 1.27 1.46 1.43 1.31 1.10 0.92 0.72 0.58 0.46 0.39 0.35 0.33 0.30 0.35 0.35 0.31 0.29 0.28 0.28 0.25 0.23 0.26 0.29
0.53 0.57 0.61 0.57 0.49 0.41 0.43 0.39 0.37 0.38 0.35 0.36 0.40 0.57 0.75 1.01 1.36 1.52 1.44 1.22 0.99 0.74 0.56 0.45 0.37 0.34 0.31 0.29 0.30 0.35 0.34 0.31 0.30 0.31 0.31 0.29 0.27 0.30
0.57 0.62 0.66 0.59 0.46 0.34 0.39 0.43 0.36 0.32 0.34 0.35 0.36 0.42 0.55 0.73 1.04 1.20 1.17 1.10 0.92 0.72 0.49 0.43 0.36 0.39 0.34 0.27 0.23 0.24 0.26 0.30 0.31 0.32 0.32 0.34 0.33 0.26
0.47 0.50 0.60 0.54 0.42 0.30 0.32 0.37 0.32 0.33 0.40 0.40 0.41 0.46 0.57 0.69 0.82 1.03 1.09 0.98 0.85 0.65 0.47 0.46 0.39 0.37 0.35 0.27 0.24 0.21 0.20 0.20 0.23 0.28 0.32 0.35 0.36 0.32
0.49 0.53 0.60 0.58 0.44 0.36 0.31 0.30 0.25 0.23 0.31 0.37 0.37 0.38 0.45 0.56 0.72 0.92 1.08 1.05 0.92 0.79 0.68 0.63 0.56 0.48 0.39 0.30 0.23 0.20 0.21 0.20 0.20 0.22 0.25 0.33 0.34 0.37
0.55 0.70 0.74 0.70 0.60 0.49 0.43 0.40 0.31 0.26 0.30 0.32 0.33 0.32 0.35 0.47 0.71 0.96 1.15 1.25 1.15 0.98 0.87 0.77 0.70 0.63 0.58 0.40 0.26 0.22 0.21 0.22 0.22 0.22 0.23 0.25 0.28 0.31
0.47 0.66 0.79 0.85 0.81 0.70 0.61 0.55 0.42 0.35 0.35 0.35 0.36 0.40 0.48 0.60 0.75 0.85 0.99 1.13 1.17 1.04 0.90 0.83 0.76 0.76 0.68 0.53 0.39 0.27 0.21 0.22 0.24 0.26 0.28 0.29 0.30 0.32
0.39 0.66 0.87 1.01 1.05 1.03 0.91 0.82 0.70 0.58 0.50 0.50 0.53 0.54 0.57 0.64 0.71 0.84 0.97 1.03 1.00 0.85 0.79 0.80 0.81 0.82 0.79 0.72 0.54 0.34 0.27 0.22 0.21 0.29 0.36 0.35 0.32 0.31
0.37 0.63 0.86 1.04 1.11 1.23 1.24 1.16 0.99 0.84 0.75 0.73 0.70 0.69 0.70 0.69 0.73 0.87 1.01 1.07 0.97 0.84 0.74 0.70 0.80 0.88 0.86 0.74 0.59 0.43 0.32 0.27 0.25 0.29 0.36 0.38 0.32 0.28
0.40 0.57 0.69 0.84 1.01 1.21 1.29 1.28 1.12 1.00 1.02 1.00 0.91 0.85 0.86 0.83 0.81 0.88 1.01 1.09 1.07 0.97 0.87 0.79 0.81 0.85 0.78 0.58 0.42 0.39 0.38 0.33 0.34 0.34 0.35 0.37 0.32 0.27
0.38 0.47 0.54 0.66 0.84 1.09 1.25 1.31 1.25 1.13 1.12 1.14 1.11 1.04 1.02 0.96 0.89 0.86 0.96 1.05 1.08 1.05 0.99 0.90 0.76 0.72 0.69 0.59 0.51 0.42 0.40 0.48 0.49 0.44 0.39 0.40 0.39 0.40
0.38 0.44 0.48 0.59 0.74 0.94 1.15 1.30 1.32 1.26 1.20 1.25 1.25 1.15 1.10 1.05 0.93 0.86 0.90 1.01 1.09 1.11 0.99 0.85 0.73 0.77 0.94 1.02 0.84 0.58 0.48 0.49 0.59 0.59 0.58 0.60 0.54 0.52
0.52 0.53 0.57 0.67 0.80 1.02 1.21 1.31 1.34 1.31 1.27 1.30 1.28 1.20 1.14 1.11 1.00 0.96 0.96 1.01 1.03 1.04 1.01 0.99 1.09 1.13 1.11 1.05 0.82 0.62 0.59 0.60 0.65 0.70 0.68 0.65 0.60 0.52
0.58 0.57 0.59 0.65 0.81 1.02 1.17 1.29 1.33 1.34 1.33 1.29 1.26 1.19 1.14 1.12 1.10 1.06 1.01 1.01 1.05 1.09 1.20 1.23 1.22 1.19 1.08 1.01 0.94 0.84 0.76 0.77 0.81 0.78 0.63 0.56 0.52 0.49